Regional Weather Roundup
Issued by NWS

Home | Current Version | Previous Version | Graphics & Text | Print | Product List | Glossary On
Versions: 1 2 3 4 5 6 7 8 9 10 11 12 13 14 15 16 17 18 19 20 21 22 23 24 25 26 27 28 29 30 31 32 33 34 35 36 37 38 39 40 41 42 43 44 45 46 47 48 49 50
000
ASUS43 KDMX 230201
RWRIA

WEATHER ROUNDUP FOR IOWA
NATIONAL WEATHER SERVICE DES MOINES IA
900 PM CDT TUE AUG 22 2017

NOTE: "FAIR" INDICATES FEW OR NO CLOUDS BELOW 12,000 FEET WITH NO
SIGNIFICANT WEATHER AND/OR OBSTRUCTIONS TO VISIBILITY.

* - THESE STATIONS ARE NOT NWS STATIONS...THUS NOT UNDER NWS
QUALITY CONTROL.  THEY ALSO DO NOT REPORT WEATHER SUCH
AS PRECIPITATION OR FOG.

IAZ001>003-012>014-020>022-031>034-043>046-230300-
   NORTHWEST IOWA

CITY           SKY/WX    TMP DP  RH WIND       PRES   REMARKS
CARROLL *      CLEAR     61  57  88 W6        30.12S
CHEROKEE *     CLEAR     63  52  67 CALM      30.13S
DENISON *      CLEAR     63  55  77 CALM      30.15S
LE MARS *      CLEAR    104 N/A N/A CALM      30.13S
ORANGE CITY *  CLEAR     66  54  63 CALM      30.14S
SHELDON *      CLEAR     55  55 100 CALM      30.12S
SIOUX CITY     CLEAR     62  57  83 CALM      30.13S
SPENCER        CLEAR     58  54  86 W3        30.12S
STORM LAKE *   CLEAR     63  52  67 NW8       30.13S
$$

IAZ055>058-069>071-079>083-090>094-230300-
   SOUTHWEST IOWA

CITY           SKY/WX    TMP DP  RH WIND       PRES   REMARKS
ATLANTIC *     CLEAR     61  55  82 NW5       30.13R
AUDUBON *      CLEAR     61  55  82 CALM      30.14S
CLARINDA *       N/A     63  57  82 N3        30.15R
COUNCIL BLFS * CLEAR     66  54  63 NW3       30.14S
CRESTON *      CLEAR     63  54  72 NW6       30.14R
HARLAN  *      CLEAR     61  57  88 CALM      30.17R
LAMONI         CLEAR     64  51  62 N8        30.11R
RED OAK *      CLEAR     63  55  77 N7        30.14R
SHENANDOAH *   CLEAR     63  57  82 N3        30.14R
$$

IAZ047>049-059>061-072>074-084-230300-
   CENTRAL IOWA

CITY           SKY/WX    TMP DP  RH WIND       PRES   REMARKS
AMES           CLEAR     61  57  87 NW5       30.10R
ANKENY *       CLEAR     66  52  59 NW5       30.11R
BOONE *        CLEAR     64  52  63 CALM      30.10S
CHARITON *     CLEAR     61  52  72 NW7       30.10R
DES MOINES     PTCLDY    67  51  56 NW5       30.09R
GRINNELL*      PTCLDY    62  53  74 CALM      30.10R
KNOXVILLE *    CLEAR     64  52  63 NW5       30.09R
MARSHALLTOWN   CLEAR     59  55  87 NW6       30.08R
NEWTON *       CLEAR     63  52  67 NW6       30.09S
PELLA *        CLEAR     62  53  72 CALM      30.10R
PERRY *          N/A     61  57  88 NW5       30.11S
$$

IAZ004>006-015-016-023>025-035-036-230300-
   NORTH CENTRAL IOWA

CITY           SKY/WX    TMP DP  RH WIND       PRES   REMARKS
ALGONA *       CLEAR     61  55  82 NW5       30.11S
CLARION *      CLEAR     61  57  88 NW3       30.10S
ESTHERVILLE    CLEAR     58  55  90 NW6       30.11S
FORT DODGE *   CLEAR     59  52  77 CALM      30.12R
MASON CITY     CLEAR     57  51  80 NW8       30.11R
FOREST CITY *    N/A     61  52  72 NW6       30.10S
WEBSTER CITY * CLEAR     59  55  88 W6        30.09R
IOWA FALLS *     N/A     60  55  84 NW5       30.10S
$$

IAZ007>011-017>019-026>030-037>042-050>054-066-230300-
   NORTHEAST IOWA

CITY           SKY/WX    TMP DP  RH WIND       PRES   REMARKS
CEDAR RAPIDS   CLEAR     60  54  80 NW5       30.06R
CHARLES CITY * CLEAR     59  55  88 W5        30.08R
CLINTON *      CLEAR     59  56  89 NW6       30.04R
DECORAH *      CLEAR     63  52  67 VRB3      30.05R
DUBUQUE        CLEAR     62  51  67 NW9       30.04S
MONTICELLO *   CLEAR     59  55  88 CALM      30.05R
OELWEIN *      CLEAR     59  55  88 NW7       30.07S
WATERLOO       CLEAR     61  52  72 W6        30.06R
$$

IAZ064-065-067-068-078-230300-
   EAST CENTRAL IOWA

CITY           SKY/WX    TMP DP  RH WIND       PRES   REMARKS
DAVENPORT      CLEAR     60  54  80 NW6       30.07R
IOWA CITY      CLEAR     66  53  63 NW6       30.07R
MUSCATINE *    CLEAR     63  55  77 W5        30.06R
QUAD CITIES    CLEAR     67  52  58 NW7       30.04R
$$

IAZ062-063-075>077-085>089-095>099-230300-
   SOUTHEAST IOWA

CITY           SKY/WX    TMP DP  RH WIND       PRES   REMARKS
BURLINGTON     CLEAR     66  54  65 NW6       30.06R
FAIRFIELD *    CLEAR     61  52  72 NW6       30.08R
FORT MADISON * CLEAR     63  55  77 NW3       30.07S
KEOKUK *       CLEAR     66  54  63 NW5       30.06R
OSKALOOSA *      N/A     59  54  82 NW6       30.09R
OTTUMWA        CLEAR     62  51  67 NW7       30.08R
WASHINGTON *   CLEAR     59  55  88 NW6       30.08R
$$

ABBREVIATIONS USED IN REMARKS
   TC - TEMPERATURES IN CELSIUS
  WCI - WIND CHILL INDEX
   HX - HEAT INDEX
  VSB - VISIBILITY
$$





USA.gov is the U.S. government's official web portal to all federal, state and local government web resources and services.